Wind_Speed
19 19 19 20 20 19 18 17 17 17 18 18 18 18 18 19 19 19 19 19 19 19 19 20 20 20 20 20 20 20 20 20 20 19 19 18 18 17 17 17 16 16 16 15 15 15 15 14 14
20 20 21 21 21 19 18 18 18 18 18 18 19 19 19 20 20 20 20 20 20 20 21 21 22 22 22 22 22 22 22 22 22 22 21 21 20 20 19 19 19 18 18 18 17 16 16 16 16
21 21 22 22 21 20 18 19 19 19 19 19 20 20 20 20 21 21 21 21 21 21 22 22 23 23 24 24 24 24 23 24 24 24 23 23 22 21 21 21 20 20 20 19 19 18 18 17 17
22 22 23 23 22 20 20 21 21 21 21 21 21 21 22 22 22 22 22 22 22 23 23 23 24 24 25 25 25 25 25 25 26 25 25 25 24 24 23 23 22 21 21 21 20 20 19 19 19
23 24 24 24 23 22 22 22 23 23 23 23 23 23 23 23 23 23 23 23 24 24 24 25 25 25 26 26 27 27 26 26 27 27 27 27 26 26 25 25 24 23 23 23 23 22 21 22 21
24 24 25 25 23 23 23 24 25 25 25 25 25 25 25 25 25 25 25 25 25 25 26 26 26 27 27 28 28 28 28 28 28 28 28 29 28 28 28 27 27 25 25 24 24 24 24 23 23
25 25 25 25 24 24 24 25 27 27 27 27 27 27 27 26 26 27 27 27 27 27 28 28 28 29 29 29 29 30 30 30 31 30 30 30 30 30 30 30 29 28 27 26 26 25 25 25 24
25 26 26 25 25 24 25 26 27 28 29 29 29 29 28 28 28 29 29 30 30 30 29 30 30 31 31 31 31 32 32 32 33 32 32 32 32 32 31 32 32 31 30 30 29 28 27 27 27
26 27 27 26 25 25 25 27 28 29 30 30 30 30 30 30 30 31 31 31 31 31 32 32 32 33 33 33 33 33 34 34 34 34 33 33 33 33 33 33 33 33 33 32 31 30 29 29 28
27 28 27 27 27 27 27 28 29 30 30 30 31 31 31 32 33 33 33 33 33 34 34 34 34 34 34 34 34 35 35 35 35 35 35 35 34 34 34 34 34 34 34 34 34 32 31 31 30
30 30 29 29 30 30 30 30 31 32 32 32 32 33 33 34 34 35 35 35 35 36 36 36 35 35 35 35 35 35 36 37 37 36 36 37 36 36 35 35 36 36 36 36 36 35 34 33 33
31 31 32 32 32 32 32 32 33 33 34 34 35 35 35 35 36 36 37 37 37 37 37 37 37 36 36 36 37 37 37 38 38 38 38 38 38 37 37 37 37 37 37 37 37 37 37 35 35
32 32 32 33 34 35 35 34 34 35 35 36 37 37 37 37 37 37 38 38 38 38 38 38 38 37 37 37 37 38 38 38 39 40 39 39 39 39 38 38 38 38 38 38 38 38 38 38 37
32 32 33 34 34 35 36 36 36 36 37 37 38 38 38 39 39 39 39 39 40 40 40 40 40 39 39 39 39 39 39 39 40 41 41 40 40 40 40 39 39 40 39 39 39 40 40 40 39
33 34 34 35 35 36 37 38 37 37 38 39 39 40 40 40 40 40 40 40 41 41 41 42 42 41 41 40 40 40 40 39 39 41 41 41 41 41 40 40 40 41 41 41 41 41 42 41 41
34 35 35 35 37 38 39 38 38 39 40 40 41 41 41 41 41 41 41 41 42 42 42 43 43 43 42 42 42 42 42 41 41 41 42 42 42 42 42 41 41 42 42 42 42 43 43 43 43
35 36 36 37 38 39 40 40 40 41 41 41 41 42 42 42 42 42 42 42 42 43 43 43 44 44 44 44 43 43 43 43 43 42 43 43 43 44 43 43 43 43 42 43 43 44 44 44 44
35 37 37 38 38 40 41 41 41 42 42 42 42 42 42 43 43 43 43 43 43 43 44 44 45 46 46 46 45 45 45 45 44 44 44 45 45 45 45 45 45 45 44 44 44 45 45 46 46
36 37 38 38 39 40 41 41 41 42 42 42 42 42 42 43 43 43 44 44 44 44 45 45 46 46 47 47 46 45 45 46 46 46 45 46 46 46 46 47 46 46 45 45 45 45 45 46 47
37 38 38 39 40 42 42 43 42 42 42 42 42 42 43 43 44 44 43 44 45 45 45 45 46 46 46 47 46 46 45 46 47 46 46 46 46 46 47 46 47 46 46 46 47 46 46 47 47
38 39 39 40 41 42 44 44 42 42 42 41 41 42 42 43 44 44 44 44 46 46 46 46 46 46 46 47 47 47 47 47 47 47 47 47 47 47 47 47 48 48 48 48 48 48 47 47 48
38 38 40 41 42 43 43 44 41 41 41 41 41 42 42 42 43 44 45 45 45 46 46 45 46 46 46 47 47 48 48 47 47 48 48 48 48 48 48 48 48 49 49 48 48 48 48 48 48
38 39 40 41 42 43 43 45 43 42 41 41 42 42 42 42 43 43 44 45 45 45 46 45 45 46 46 47 47 48 49 48 48 48 49 49 49 49 49 49 49 50 50 50 50 48 48 49 49
38 40 41 42 42 43 42 44 45 43 42 42 42 43 43 43 43 44 44 44 45 45 45 45 46 46 47 47 48 48 49 49 49 49 50 50 50 50 50 50 50 49 50 51 50 49 49 49 50
39 40 42 43 42 43 42 43 44 43 43 42 42 42 43 43 43 43 43 43 44 44 45 45 46 46 47 47 48 49 49 50 50 50 50 50 50 51 51 51 52 51 51 51 52 51 51 51 51
40 40 41 42 43 43 42 42 41 41 41 41 41 42 42 43 43 42 42 42 43 44 44 45 45 46 46 47 47 48 49 49 50 51 51 51 50 50 51 51 52 53 52 52 53 52 52 52 52
41 40 41 41 42 42 42 42 41 40 40 40 40 40 40 41 42 42 42 43 43 44 44 44 45 46 46 46 47 47 48 49 50 51 51 51 51 51 51 51 52 53 53 53 54 54 53 53 54
39 39 39 39 40 42 42 41 40 39 39 39 39 38 38 39 40 41 42 43 43 43 43 44 45 46 46 46 47 47 47 48 49 50 51 52 53 53 53 52 52 53 53 54 55 54 54 54 54
37 37 37 38 38 40 40 39 38 39 39 39 38 38 38 38 39 41 42 42 43 43 43 44 45 46 47 47 48 48 48 48 49 49 50 52 53 54 54 53 53 53 53 54 55 55 55 55 55
36 36 36 36 37 38 39 39 37 38 38 38 38 38 37 37 37 38 40 41 41 41 43 44 45 46 47 47 48 48 49 49 49 49 50 51 53 54 54 54 54 55 55 55 55 55 56 55 55
Wind_Direction
251 250 251 252 252 253 255 256 257 258 258 258 259 261 261 260 259 257 257 257 256 255 256 255 254 254 254 253 253 253 252 252 252 251 251 250 249 248 248 248 248 248 248 249 248 247 246 244 242
252 252 252 253 253 254 256 259 260 260 259 259 260 261 262 262 261 261 259 257 256 256 256 256 256 256 255 255 255 255 254 253 253 252 252 251 250 249 248 248 249 249 249 250 250 248 246 245 242
253 252 254 254 254 257 259 259 260 261 261 261 261 262 263 263 262 263 263 261 259 258 257 257 257 256 256 256 255 256 254 253 252 252 252 252 252 251 249 249 249 249 248 249 251 251 248 247 245
253 254 255 256 257 258 259 260 260 261 260 261 261 262 263 263 263 263 263 262 261 261 259 259 259 258 257 257 256 255 254 253 252 252 252 252 252 251 250 250 248 248 247 248 250 252 251 249 247
255 255 257 258 259 259 259 260 261 260 260 260 261 262 262 262 262 262 263 263 263 263 262 261 260 259 258 257 257 256 255 254 252 251 251 251 251 251 251 251 250 249 247 247 249 250 250 251 250
257 258 259 260 260 259 259 260 262 262 262 261 262 263 264 263 262 262 263 263 263 263 263 262 261 260 259 258 257 256 255 254 252 252 251 251 251 252 253 253 252 250 248 247 248 249 250 250 250
259 260 260 260 259 259 260 262 262 263 263 262 263 263 264 264 263 263 263 264 264 263 262 262 262 261 260 259 258 257 256 255 254 253 252 252 253 253 254 253 252 251 249 249 249 248 248 248 248
259 259 260 261 261 260 260 262 263 263 263 263 263 264 265 265 264 264 264 264 264 263 262 261 261 260 260 259 259 257 256 255 255 254 253 253 253 253 253 253 253 251 250 249 248 248 247 247 248
260 260 260 262 262 261 261 261 263 264 264 264 264 265 265 265 265 265 265 265 264 264 263 262 261 260 260 260 259 258 257 256 255 255 254 254 254 254 254 254 254 252 251 250 248 247 247 247 247
261 262 262 262 262 262 261 261 262 263 265 265 265 265 265 265 266 266 265 265 264 263 262 262 262 261 260 260 259 258 257 256 255 254 254 254 255 254 254 254 254 253 251 250 250 249 248 248 247
264 264 263 263 263 263 262 262 262 263 264 265 265 265 265 266 266 266 266 266 265 264 263 261 261 261 260 259 259 259 257 256 256 255 254 254 255 255 255 255 254 253 252 251 250 249 248 248 248
266 265 264 263 263 263 263 263 263 264 265 266 266 266 267 266 266 266 267 266 266 265 264 262 260 260 260 259 258 258 258 256 255 255 254 254 255 255 255 255 254 253 253 252 251 250 249 248 248
267 266 266 265 265 265 265 264 264 264 265 266 267 268 268 267 267 267 267 267 266 265 264 262 261 260 260 259 259 258 259 257 255 255 255 254 254 254 254 255 254 253 253 252 251 250 249 249 248
267 267 267 266 266 266 266 266 266 266 266 267 267 268 268 268 267 267 267 267 266 265 263 262 261 261 260 259 259 259 259 258 256 254 255 254 254 254 254 256 256 255 253 252 252 251 250 249 249
268 267 266 267 267 267 267 266 267 267 267 268 268 268 268 268 268 267 267 267 267 265 263 262 261 260 260 259 259 259 258 258 257 255 254 254 254 254 255 256 257 257 255 254 252 251 250 249 249
270 269 268 268 267 267 268 267 267 267 268 269 269 269 269 269 268 268 268 267 267 265 263 262 261 260 260 259 259 258 258 257 257 256 254 254 254 254 255 256 257 257 256 255 254 252 251 250 249
271 271 270 269 268 268 268 268 268 269 269 269 269 269 269 269 269 268 268 267 266 264 262 261 259 259 259 259 258 257 256 256 256 257 255 254 253 254 255 255 256 257 256 255 255 254 252 251 250
274 273 272 272 271 270 270 270 270 270 270 270 269 269 269 269 268 268 267 266 265 263 262 261 259 259 258 258 257 256 256 255 256 256 255 253 253 254 254 255 256 256 256 256 256 254 253 252 251
275 275 274 274 273 272 272 271 271 271 270 269 269 268 268 268 269 268 267 266 265 263 262 261 260 259 258 257 256 256 256 255 255 256 255 254 253 254 254 254 255 256 256 256 256 255 254 253 252
276 276 276 275 274 274 273 272 272 271 271 271 270 269 268 268 268 269 268 266 264 263 262 261 261 261 259 258 257 256 256 255 255 256 255 254 253 253 253 254 254 255 255 256 256 255 255 254 253
278 278 278 277 276 275 275 274 273 272 272 272 271 271 270 269 268 268 267 267 266 264 264 263 262 261 260 258 257 256 255 255 254 255 255 253 252 253 253 253 254 254 255 255 256 255 255 254 253
279 279 279 278 277 277 277 276 274 273 273 272 272 271 270 270 269 268 268 268 267 266 264 263 262 261 260 258 258 257 256 256 255 255 255 253 252 253 253 253 253 254 255 255 255 256 255 254 253
281 281 280 280 279 278 278 277 276 276 275 274 273 272 271 271 269 269 268 267 267 266 265 264 263 262 260 259 258 258 257 255 254 254 254 253 253 253 253 253 253 254 255 254 254 255 254 254 253
282 282 282 282 281 280 280 279 278 278 278 276 275 273 272 271 270 269 268 268 267 266 265 264 263 262 260 260 259 258 257 256 254 253 254 253 253 253 253 253 254 254 254 253 253 253 253 253 253
283 283 284 283 282 282 281 280 280 280 279 279 277 275 273 271 270 270 269 268 267 265 264 264 263 261 261 260 260 259 258 257 254 254 254 254 254 254 253 254 255 254 254 253 253 252 253 253 254
284 284 284 285 285 284 282 281 282 282 281 280 279 277 274 271 269 268 268 268 267 265 264 263 262 261 261 261 260 260 258 257 256 255 255 255 254 253 254 255 254 254 253 253 253 253 254 254 254
285 284 285 285 284 284 284 283 283 283 283 282 281 278 276 273 270 269 268 268 267 266 264 263 261 260 261 261 261 260 259 258 258 257 257 256 256 256 255 255 255 254 253 253 253 253 254 254 254
287 287 286 285 286 286 286 285 284 284 284 283 282 281 278 274 272 270 269 268 267 266 264 263 262 261 261 261 261 260 259 258 258 258 258 257 257 257 257 257 256 255 254 254 253 253 254 254 253
289 287 286 285 285 285 286 286 285 285 285 285 283 282 280 277 274 272 269 268 267 265 264 264 263 262 261 260 260 260 260 259 259 259 258 258 258 259 259 257 256 256 256 255 254 253 254 254 254
289 288 286 286 286 286 287 286 285 285 285 285 284 282 280 278 276 273 271 268 267 266 265 264 264 262 261 261 261 260 260 260 260 260 260 259 259 259 259 258 258 257 256 255 254 254 254 254 254
Height
5792 5793 5794 5795 5797 5797 5798 5800 5800 5801 5802 5803 5804 5804 5806 5807 5808 5811 5810 5809 5810 5811 5812 5813 5813 5814 5815 5816 5817 5818 5819 5819 5821 5822 5823 5824 5826 5827 5828 5830 5831 5832 5834 5835 5836 5837 5838 5839 5841
5788 5789 5791 5792 5792 5794 5796 5797 5797 5798 5799 5799 5800 5801 5801 5802 5803 5804 5804 5805 5806 5807 5808 5808 5809 5810 5811 5812 5813 5814 5815 5816 5817 5818 5819 5820 5822 5823 5825 5826 5827 5829 5830 5832 5833 5834 5835 5837 5838
5784 5785 5787 5788 5789 5791 5793 5793 5794 5794 5795 5796 5796 5797 5798 5799 5799 5800 5800 5801 5802 5802 5803 5804 5805 5805 5806 5807 5808 5809 5810 5811 5812 5813 5814 5816 5817 5819 5820 5822 5824 5825 5826 5828 5829 5831 5832 5834 5835
5780 5782 5783 5784 5786 5788 5788 5789 5789 5790 5791 5792 5793 5793 5794 5795 5795 5796 5796 5796 5797 5798 5798 5799 5800 5800 5801 5802 5803 5804 5805 5806 5807 5808 5809 5811 5812 5814 5815 5817 5819 5821 5822 5824 5825 5827 5829 5830 5831
5776 5777 5778 5779 5782 5783 5784 5784 5785 5785 5787 5788 5788 5789 5789 5790 5790 5791 5791 5792 5792 5793 5793 5794 5794 5795 5796 5796 5797 5798 5799 5800 5801 5802 5804 5805 5807 5808 5810 5812 5814 5816 5817 5819 5821 5823 5824 5826 5828
5772 5773 5774 5775 5777 5779 5779 5779 5780 5781 5782 5782 5783 5784 5785 5785 5785 5785 5786 5786 5787 5787 5788 5788 5788 5789 5790 5790 5791 5792 5793 5794 5795 5796 5798 5799 5801 5803 5804 5806 5808 5810 5812 5814 5816 5818 5820 5821 5823
5768 5768 5769 5770 5772 5773 5774 5774 5774 5775 5776 5777 5777 5778 5779 5779 5779 5780 5780 5780 5781 5781 5781 5782 5782 5783 5783 5784 5785 5785 5786 5787 5789 5790 5791 5793 5794 5796 5798 5800 5802 5804 5806 5808 5810 5813 5815 5816 5818
5762 5763 5763 5765 5766 5768 5769 5768 5769 5769 5770 5771 5771 5772 5773 5773 5773 5773 5773 5774 5774 5774 5775 5775 5776 5776 5777 5777 5778 5778 5779 5781 5782 5783 5784 5786 5788 5789 5791 5793 5795 5798 5800 5802 5804 5806 5809 5811 5813
5756 5758 5758 5760 5761 5762 5762 5762 5762 5763 5763 5764 5764 5765 5766 5766 5766 5766 5767 5767 5767 5767 5767 5768 5768 5769 5769 5770 5770 5771 5772 5773 5774 5776 5777 5779 5780 5782 5784 5786 5788 5790 5793 5795 5798 5800 5802 5805 5807
5751 5751 5753 5754 5754 5755 5755 5756 5756 5756 5757 5757 5758 5758 5758 5759 5759 5759 5759 5759 5759 5759 5759 5760 5760 5760 5761 5761 5762 5763 5764 5765 5766 5768 5770 5771 5773 5775 5777 5778 5780 5782 5785 5788 5790 5793 5795 5798 5800
5745 5746 5747 5747 5747 5747 5748 5748 5749 5749 5750 5750 5750 5750 5751 5751 5751 5751 5751 5751 5751 5751 5751 5751 5752 5752 5752 5753 5754 5755 5755 5757 5758 5760 5761 5763 5765 5767 5769 5771 5772 5774 5777 5780 5782 5785 5788 5791 5793
5738 5739 5739 5740 5739 5739 5740 5741 5741 5742 5742 5742 5742 5742 5742 5743 5743 5743 5743 5743 5743 5743 5743 5743 5743 5744 5744 5744 5745 5746 5747 5748 5749 5751 5753 5755 5757 5758 5760 5762 5764 5766 5769 5771 5774 5777 5780 5783 5786
5731 5732 5732 5732 5732 5732 5732 5732 5733 5734 5734 5733 5733 5733 5734 5734 5734 5733 5733 5733 5733 5733 5733 5734 5734 5735 5735 5736 5736 5737 5738 5738 5740 5742 5743 5745 5748 5750 5751 5753 5755 5757 5760 5763 5765 5768 5772 5775 5778
5723 5724 5724 5724 5724 5723 5724 5724 5725 5726 5725 5725 5724 5724 5724 5724 5724 5724 5724 5724 5723 5723 5724 5724 5725 5725 5726 5726 5727 5727 5728 5729 5730 5732 5734 5736 5738 5740 5743 5744 5746 5748 5751 5753 5756 5759 5762 5766 5769
5715 5715 5716 5715 5715 5715 5715 5716 5716 5716 5716 5715 5715 5714 5714 5714 5713 5713 5713 5713 5713 5713 5713 5713 5714 5715 5715 5716 5717 5717 5718 5719 5720 5722 5724 5726 5728 5731 5733 5735 5737 5739 5741 5744 5746 5749 5753 5756 5759
5707 5707 5707 5708 5706 5706 5707 5707 5707 5706 5706 5705 5705 5704 5703 5703 5703 5702 5702 5702 5702 5701 5701 5702 5703 5704 5704 5705 5706 5707 5708 5709 5711 5712 5714 5716 5718 5721 5723 5725 5727 5729 5731 5734 5736 5739 5742 5746 5749
5698 5698 5698 5699 5697 5696 5696 5697 5697 5695 5695 5694 5693 5693 5692 5692 5691 5691 5690 5690 5690 5689 5690 5690 5691 5692 5693 5694 5695 5696 5697 5699 5700 5702 5704 5706 5708 5710 5713 5715 5717 5719 5721 5723 5726 5729 5732 5735 5738
5690 5689 5689 5688 5687 5686 5685 5686 5686 5684 5683 5683 5682 5681 5680 5680 5679 5679 5679 5678 5678 5678 5678 5679 5679 5680 5681 5682 5683 5685 5686 5688 5689 5691 5692 5695 5697 5699 5702 5704 5706 5708 5711 5713 5715 5718 5720 5724 5727
5681 5680 5679 5678 5676 5675 5674 5675 5675 5673 5672 5671 5670 5670 5669 5668 5667 5667 5667 5666 5666 5666 5666 5667 5667 5668 5669 5670 5671 5673 5675 5677 5678 5680 5681 5683 5685 5688 5690 5692 5694 5697 5699 5702 5704 5706 5709 5712 5715
5671 5670 5669 5668 5666 5664 5663 5663 5663 5661 5660 5660 5659 5658 5657 5657 5656 5655 5654 5654 5654 5654 5654 5655 5655 5656 5657 5658 5659 5661 5663 5664 5666 5668 5669 5671 5674 5676 5678 5681 5683 5685 5688 5690 5693 5695 5697 5700 5703
5661 5660 5659 5657 5655 5652 5651 5651 5652 5651 5649 5648 5647 5646 5645 5645 5644 5643 5643 5642 5641 5642 5642 5643 5643 5644 5644 5646 5647 5649 5650 5652 5653 5655 5657 5659 5662 5664 5667 5669 5672 5674 5676 5678 5681 5683 5686 5688 5691
5651 5650 5647 5645 5643 5641 5640 5637 5640 5639 5638 5636 5636 5635 5634 5633 5632 5631 5630 5630 5629 5629 5630 5630 5631 5631 5632 5634 5635 5637 5638 5640 5642 5644 5645 5647 5650 5652 5655 5657 5660 5662 5664 5666 5668 5671 5673 5676 5679
5641 5639 5637 5634 5631 5629 5628 5625 5628 5626 5626 5625 5624 5623 5622 5621 5619 5619 5618 5618 5617 5617 5617 5618 5618 5619 5620 5621 5623 5625 5626 5628 5629 5631 5633 5635 5638 5640 5642 5645 5647 5649 5651 5654 5656 5659 5661 5664 5667
5631 5628 5625 5622 5619 5618 5618 5613 5613 5614 5614 5613 5612 5610 5609 5608 5607 5606 5606 5605 5605 5605 5605 5605 5606 5607 5608 5609 5611 5612 5613 5615 5617 5619 5621 5623 5625 5627 5630 5632 5634 5636 5639 5641 5643 5646 5649 5651 5654
5621 5618 5614 5610 5607 5606 5605 5601 5602 5602 5601 5599 5598 5597 5595 5595 5594 5594 5593 5593 5593 5593 5593 5593 5594 5595 5596 5597 5598 5599 5600 5602 5604 5606 5608 5610 5613 5615 5616 5619 5621 5623 5625 5628 5630 5633 5636 5639 5641
5609 5607 5603 5599 5596 5595 5593 5591 5592 5590 5588 5587 5585 5584 5583 5582 5582 5582 5581 5581 5580 5580 5581 5581 5582 5583 5583 5585 5586 5587 5588 5589 5591 5593 5595 5597 5599 5601 5603 5605 5607 5609 5611 5614 5617 5619 5622 5625 5628
5597 5595 5593 5588 5584 5582 5581 5580 5580 5579 5577 5575 5574 5572 5571 5570 5570 5570 5569 5569 5568 5568 5568 5568 5569 5570 5571 5572 5573 5574 5575 5577 5578 5580 5582 5584 5585 5587 5589 5591 5593 5595 5597 5600 5603 5606 5608 5611 5614
5587 5584 5581 5577 5573 5570 5570 5570 5570 5568 5566 5564 5563 5561 5559 5558 5558 5557 5557 5557 5556 5556 5556 5556 5557 5558 5559 5559 5560 5561 5562 5563 5565 5566 5568 5570 5571 5573 5575 5577 5579 5581 5583 5586 5588 5591 5594 5596 5599
5577 5574 5570 5567 5564 5561 5559 5562 5559 5557 5555 5553 5551 5550 5548 5547 5546 5545 5544 5544 5544 5544 5544 5544 5545 5545 5546 5547 5547 5548 5549 5550 5552 5553 5554 5556 5557 5559 5560 5562 5564 5566 5569 5571 5573 5576 5579 5582 5584
5566 5564 5561 5559 5556 5552 5550 5553 5549 5547 5544 5543 5541 5539 5537 5535 5534 5533 5532 5532 5532 5532 5532 5532 5532 5532 5533 5534 5534 5535 5536 5537 5538 5539 5540 5542 5543 5544 5546 5547 5549 5551 5554 5556 5558 5561 5564 5566 5569